Regional Weather Roundup
Issued by NWS

Home | Current Version | Previous Version | Graphics & Text | Print | Product List | Glossary On
Versions: 1 2 3 4 5 6 7 8 9 10 11 12 13 14 15 16 17 18 19 20 21 22 23 24 25 26 27 28 29 30 31 32 33 34 35 36 37 38 39 40 41 42 43 44 45 46 47 48 49 50
697
ASUS44 KJAN 230310
RWRMS

MISSISSIPPI HOURLY WEATHER ROUNDUP
NATIONAL WEATHER SERVICE JACKSON MS
1000 PM CDT MON SEP 22 2014

NOTE: "FAIR: INDICATES FEW OR NO CLOUDS BELOW 12,000 FEET WITH NO
SIGNIFICANT WEATHER AND/OR OBSTRUCTIONS TO VISIBILITY.

MSZ001>002-007>008-010>013-018>021-025>028-034>036-230400-
NORTHWEST MISSISSIPPI

CITY           SKY/WX    TMP DP  RH WIND       PRES   REMARKS
CLARKSDALE     FAIR      63  55  77 N6        30.19S
CLEVELAND      FAIR      61  54  77 N5        30.17R
GREENWOOD      CLEAR     61  54  77 N7        30.16R
GREENVILLE     CLEAR     65  50  58 NE9       30.16R
GRENADA        FAIR      63  54  72 N7        30.17R
OLIVE BRANCH   CLEAR     61  55  82 N8        30.20R
OXFORD         FAIR      57  54  88 CALM      30.20R
TUNICA         CLEAR     61  54  77 N9        30.20S
$$

MSZ003>006-009-014>017-022>024-029>033-037>039-230400-
NORTHEAST MISSISSIPPI

CITY           SKY/WX    TMP DP  RH WIND       PRES   REMARKS
COLUMBUS AFB   CLEAR     62  54  73 N3        30.15R
CORINTH          N/A     57  52  82 N5        30.19R
GOLDN TRIANGLE CLEAR     61  52  72 N6        30.14R
STARKVILLE     FAIR      63  54  72 N3        30.14S
TUPELO         CLEAR     60  53  77 NE7       30.17R
$$

MSZ040-058-230400-
CENTRAL MISSISSIPPI

CITY           SKY/WX    TMP DP  RH WIND       PRES   REMARKS
JACKSON INTL   CLEAR     71  54  54 N7        30.12R
JACKSON HAWKNS CLEAR     70  54  56 N5        30.13R
MERIDIAN KEY   CLEAR     65  53  65 N7        30.11R
MERIDIAN NAS   CLEAR     65  53  65 N6        30.12R
RAYMOND        FAIR      66  63  88 N3        30.13S
VICKSBURG      CLEAR     65  54  67 N9        30.13R
$$

MSZ059>079-230400-
SOUTH MISSISSIPPI

CITY           SKY/WX    TMP DP  RH WIND       PRES   REMARKS
BROOKHAVEN     FAIR      66  55  68 N3        30.13R
COLUMBIA       FAIR      64  55  72 NE5       30.08R
HATTIESBURG    CLEAR     70  55  59 N5        30.09R
MCCOMB         CLEAR     70  54  56 N5        30.10R
NATCHEZ        CLEAR     64  55  72 CALM      30.12R
PINE BELT      CLEAR     66  52  59 N8        30.11R
$$

MSZ080>082-230400-
COASTAL MISSISSIPPI

CITY           SKY/WX    TMP DP  RH WIND       PRES   REMARKS
BILOXI         CLEAR     73  57  57 N7        30.05R
PASCAGOULA     CLEAR     66  60  81 N3        30.04R
GULFPORT       CLEAR     72  55  55 N6        30.04R
$$



USA.gov is the U.S. government's official web portal to all federal, state and local government web resources and services.